Calgary Springbank,

7:43 AM MDT on July 21, 2017 (GMT -0600)
Calgary Springbank

Weather History for CYBW - March, 2013

Change the Weather History Date:

Monday, March 25, 2013

  Actual Average Record
Temperature  
Mean Temperature 25 °F -  
Max Temperature 41 °F 44 °F 62 °F (1999)
Min Temperature 9 °F 22 °F 9 °F (2013)
Degree Days  
Heating Degree Days 40    
Moisture  
Dew Point 10 °F    
Average Humidity 49    
Maximum Humidity 79    
Minimum Humidity 18    
Precipitation  
Precipitation 0.00 in - - ()
Sea Level Pressure  
Sea Level Pressure 30.19 in    
Wind  
Wind Speed 6 mph ()    
Max Wind Speed 16 mph    
Max Gust Speed -    
Visibility 15.0 miles    
Events      
Averages and records for this station are not official NWS values.
T = Trace of Precipitation, MM = Missing Value Source: Averaged Metar Reports

Daily Weather History Graph

Daily Weather History Graph

Search for Another Location

Airport or City:

Trip Planner

Search our weather history database for the weather conditions in past years. The results will help you decide how hot, cold, wet, or windy it might be!

Date:

Astronomy

Mar. 25, 2013 Rise Set
Actual Time 7:28 AM MDT 7:59 PM MDT
Civil Twilight 6:54 AM MDT 8:32 PM MDT
Nautical Twilight 6:15 AM MDT 9:12 PM MDT
Astronomical Twilight 5:33 AM MDT 9:54 PM MDT
Moon 6:30 PM MDT (3/25) 6:22 AM MDT (3/25)
Length of Visible Light 13h 37m
Length of Day
12h 31m
Waxing Gibbous, 97% of the Moon is Illuminated
Mar 25
Waxing Gibbous
Mar 27
Full
Apr 2
Last Quarter
Apr 10
New
Apr 18
First Quarter

Hourly Weather History & Observations

Time (MDT) Temp. Windchill Dew Point Humidity Pressure Visibility Wind Dir Wind Speed Gust Speed Precip Events Conditions
5:00 AM 12.2 °F 1.7 °F 6.8 °F 79% 30.23 in 15.0 mi NNW 6.9 mph - N/A   Clear
6:00 AM 11 °F - 5 °F 68% 30.24 in 15 mi NW 6.9 mph - -   Clear
6:00 AM 10.4 °F -0.4 °F 5.0 °F 79% 30.24 in 15.0 mi NW 6.9 mph - N/A   Clear
7:00 AM 12.2 °F 2.9 °F 5.0 °F 73% 30.23 in 15.0 mi WNW 5.8 mph - N/A   Clear
8:00 AM 14.0 °F 8.2 °F 6.8 °F 73% 30.24 in 30.0 mi WNW 3.5 mph - N/A   Partly Cloudy
9:00 AM 19.4 °F 12.8 °F 10.4 °F 68% 30.23 in 30.0 mi NNW 4.6 mph - N/A   Partly Cloudy
10:00 AM 26.6 °F 19.1 °F 15.8 °F 64% 30.22 in 30.0 mi North 6.9 mph - N/A   Partly Cloudy
11:00 AM 32.0 °F 24.8 °F 12.2 °F 44% 30.20 in 30.0 mi NW 8.1 mph - N/A   Partly Cloudy
12:00 PM 35 °F - 8 °F 18% 30.20 in 28 mi NW 3.5 mph - -   Scattered Clouds
12:00 PM 33.8 °F - 6.8 °F 32% 30.20 in 30.0 mi NW 2.3 mph - N/A   Partly Cloudy
1:00 PM 37.4 °F 34.9 °F 6.8 °F 28% 30.18 in 30.0 mi ESE 3.5 mph - N/A   Partly Cloudy
1:14 PM 37.4 °F 32.8 °F 6.8 °F 28% 30.18 in 30.0 mi NNW 5.8 mph - N/A   Clear
2:00 PM 39.2 °F - 5.0 °F 24% 30.18 in 30.0 mi Calm Calm - N/A   Clear
3:00 PM 41.0 °F 39.0 °F 5.0 °F 23% 30.15 in 30.0 mi WSW 3.5 mph - N/A   Clear
4:00 PM 41.0 °F 35.2 °F 8.6 °F 26% 30.14 in 30.0 mi East 9.2 mph - N/A   Clear
5:00 PM 39.2 °F 30.5 °F 15.8 °F 39% 30.15 in 30.0 mi East 16.1 mph - N/A   Clear
6:00 PM 37 °F - 14 °F 25% 30.15 in 28 mi ESE 13.8 mph - -  
6:00 PM 37.4 °F 28.9 °F 14.0 °F 38% 30.15 in 30.0 mi ESE 13.8 mph - N/A   Clear
7:00 PM 33.8 °F 25.3 °F 12.2 °F 41% 30.15 in 30.0 mi ESE 11.5 mph - N/A   Clear
8:00 PM 28.4 °F 21.2 °F 15.8 °F 59% 30.17 in 30.0 mi SSE 6.9 mph - N/A   Clear
9:00 PM 23.0 °F 13.1 °F 15.8 °F 74% 30.17 in 15.0 mi SSE 9.2 mph - N/A   Clear
10:00 PM 23.0 °F 13.9 °F 15.8 °F 74% 30.14 in 15.0 mi SE 8.1 mph - N/A   Clear